SCP
0 0 0 0 0 0 0 0 0 0 0 0 0 -0 -0 0 0 0 0 0 0 0 0 0 0 0 0 0 0 0 0 0 0 0 0 0 0 0 0 0 0 0 0
0 0 0 0 0 0 0 0 0 0 0 0 0 0 0 0 0 0 0 0 0 0 0 0 0 0 0 0 0 0 0 0 0 0 0 0 0 0 0 0 0 0 0
0 0 0 0 0 0 0 0 0 0 0 0 0 0 0 0 0 0 0 0 0 0 0 0 0 0 0 0 0 0 0 0 0 0 0 0 0 0 0 0 0 0 0
0 0 0 0 0 0 0 0 0 0 0 0 0 0 0 0 0 0 0 0 0 0 0 0 0 0 0 0 0 0 0 0 0 0 0 0 0 0 0 0 0 0 0
0 0 0 0 0 0 0 0 0 0 0 0 0 0 0 0 0 0 0 0 0 0 0 0 0 0 0 0 0 0 0 0 0 0 0 0 0 0 0 0 0 0 0
0 0 0 -0 0 0 0 0 0 0 0 0 0 0 0 0 0 -0 0 0 0 0 0 0 0 0 0 0 0 0 0 0 0 0 0 0 0 0 0 0 0 0 0
0 0 -0 -0 0 0 0 0 0 0 0 0 0 0 0 0 0 0 0 0 0 0 0 0 0 0 0 0 0 0 0 0 0 0 0 0 0 0 0 0 0 0 0
0 0 0 -0 0 0 0 0 0 0 0 0 0 0 0 0 0 0 0 0 0 0 0 0 0 0 0 0 0 0 0 0 0 0 0 0 0 0 0 0 0 0 0
0 0 0 0 0 0 0 0 0 0 0 0 0 0 0 0 0 0 0 0 0 0 0 0 0 0 0 0 0 0 0 0 0 0 0 0 0 0 -0 0 0 -0 -0
0 0 0 0 0 0 0 0 0 0 0 0 0 0 0 0 0 0 0 -0 -0 0 0 0 0 0 0 0 0 0 0 0 0 0 0 0 0 0 0 0 -0 -0 -0
0 0 0 0 0 0 0 0 0 0 0 0 0 0 0 0 -0 -0 -0 -0 0 -0 0 0 0 0 0 0 0 0 0 -0 -0 0 0 -0 -0 0 0 -0 -0 -0 -0
0 0 0 0 0 0 -0 -0 -0 -0 -0 0 0 0 0 0 0 -0 -0 0 0 -0 0 0 0 0 0 0 0 -0 -0 -0 -0 -0 -0 0 0 -0 -0 0 0 -0 0
0 0 0 -0 -0 -0 -0 -0 -0 -0 -0 0 0 0 0 0 -0 0 0 -0 0 0 0 -0 -0 -0 -0 -0 0 -0 -0 -0 -0 -0 0 -0 -0 0 -0 -0 -0 0 0
0 0 -0 -0 -0 -0 -0 0 -0 -0 0 0 0 -0 -0 0 0 0 -0 -0 -0 -0 -0 0 0 0 0 -0 -0 0 0 0 0 -0 -0 0 0 0 -0 0 0 0 0
0 0 -0 -0 -0 -0 0 -0 0 0 0 -0 -0 -0 -0 -0 -0 -0 -0 -0 -0 -0 -0 -0 -0 -0 -0 0 0 0 0 -0 -0 0 0 0 -0 0 0 0 0 0 0
0 0 0 -0 -0 0 0 0 0 0 -0 0 0 0 0 0 0 -0 -0 -0 -0 0 -0 -0 -0 -0 -0 -0 -0 -0 0 0 0 0 0 -0 0 0 0 0 0 0 0
0 0 0 0 0 0 0 0 0 0 0 0 0 0 0 0 0 0 0 -0 0 0 0 0 -0 0 -0 -0 -0 -0 -0 -0 -0 0 -0 0 0 0 0 0 0 0 0
0 0 0 0 0 0 0 0 0 0 0 0 0 0 0 0 0 0 0 0 0 0 0 0 0 0 0 0 0 0 0 -0 0 0 0 0 0 0 0 0 0 0 0
0 0 0 0 0 0 0 0 0 0 0 0 0 0 0 0 0 0 0 0 0 0 0 0 0 0 0 0 0 0 0 0 0 -0 0 0 0 0 0 0 0 0 0
0 0 0 0 0 0 0 0 0 0 0 0 0 0 0 0 0 0 0 0 0 0 0 0 0 0 0 0 0 0 0 0 0 0 0 0 0 0 0 0 0 0 0
0 0 0 0 0 0 0 0 0 0 0 0 0 0 0 0 0 0 0 0 0 0 0 0 0 0 0 0 0 0 0 0 0 0 0 0 0 0 0 0 0 0 0
0 0 0 0 0 0 0 0 0 0 0 0 0 0 0 0 0 0 0 0 0 0 0 0 0 0 0 0 0 0 0 0 0 0 0 0 0 0 0 0 0 0 0
0 0 0 0 0 0 0 0 0 0 0 0 0 0 0 0 0 0 0 0 0 0 0 0 0 0 0 0 0 0 0 0 0 0 0 0 0 0 0 0 0 0 0
0 0 0 0 0 0 0 0 0 0 0 0 0 0 0 0 0 0 0 0 0 0 0 0 0 0 0 0 0 0 0 0 0 0 0 0 0 0 0 0 0 0 0
0 0 0 0 0 0 0 0 0 0 0 0 0 0 0 0 0 0 0 0 0 0 0 0 0 0 0 0 0 0 0 0 0 0 0 0 0 0 0 0 0 0 0
0 0 0 0 0 0 0 0 0 0 0 0 0 0 0 0 0 0 0 0 0 0 0 0 0 0 0 0 0 0 0 0 0 0 0 0 0 0 0 0 -0 0 0
Wind_Speed_500mb
26 23 18 17 22 25 30 38 46 51 52 54 56 51 48 37 39 38 41 44 56 59 58 55 52 48 43 32 22 15 5 6 17 18 13 7 8 16 22 27 20 13 14
31 26 27 26 28 33 39 42 46 47 44 48 44 34 34 35 37 41 46 41 50 60 59 56 51 42 36 24 15 13 11 11 15 18 13 3 8 17 19 18 14 12 15
30 28 28 33 40 41 45 48 41 38 34 37 31 30 31 36 34 40 45 46 51 53 47 41 38 26 24 23 19 13 14 15 14 18 16 11 12 13 14 14 17 19 18
31 33 38 42 46 48 48 40 35 28 28 27 30 32 27 25 24 27 33 37 39 37 35 30 30 30 28 24 23 22 22 19 22 22 23 20 18 21 15 16 15 17 13
23 31 38 42 42 38 39 31 25 25 21 20 21 21 16 13 11 20 31 37 38 39 42 46 40 37 33 30 27 28 21 25 28 27 24 21 18 17 22 21 19 19 15
19 25 35 38 33 32 28 26 26 19 14 14 12 9 4 6 15 27 36 46 52 49 41 36 31 25 27 22 19 28 32 30 29 26 22 23 20 19 23 23 23 19 19
25 27 31 36 27 22 23 23 15 10 10 11 5 8 23 30 29 39 42 36 37 33 33 34 33 27 25 28 35 38 35 30 30 25 22 21 19 30 35 28 23 20 18
33 28 26 31 22 19 16 12 3 4 9 16 28 32 35 39 37 34 30 32 39 38 35 31 35 33 35 37 41 37 34 30 26 25 23 23 25 28 35 37 32 25 13
28 21 23 23 15 12 8 3 9 11 27 36 41 44 45 45 38 35 38 33 36 37 35 32 33 33 32 41 39 34 31 30 25 25 26 26 22 25 32 26 31 26 15
12 18 18 12 10 11 7 11 24 34 43 42 46 48 50 49 40 37 33 33 37 36 34 33 34 35 38 37 32 27 34 29 27 22 28 26 21 23 30 36 33 31 28
15 9 8 3 6 9 17 31 40 43 44 48 50 51 48 38 41 36 29 34 34 33 36 41 43 38 35 35 31 34 35 31 26 23 22 20 19 13 21 29 34 33 28
7 2 5 9 17 26 35 47 43 44 46 51 53 51 45 44 44 39 40 49 48 48 45 43 41 38 38 39 37 36 31 28 24 23 24 28 27 25 25 25 33 31 28
13 13 19 28 37 54 51 48 51 46 49 55 55 53 48 50 49 48 52 51 50 52 50 46 43 41 42 39 35 31 28 24 26 29 31 31 29 25 24 21 22 26 40
27 28 33 47 68 57 50 60 53 54 56 56 55 52 50 55 52 48 47 46 47 52 51 49 47 43 39 36 37 38 39 36 34 33 31 28 26 27 25 22 23 29 44
35 42 53 63 65 63 60 59 60 57 54 45 44 51 57 55 51 47 48 50 50 50 46 44 43 41 41 41 37 41 40 35 35 32 28 27 31 28 27 25 30 34 43
52 57 59 69 71 74 73 71 63 55 57 59 56 55 55 54 48 45 44 43 41 43 43 41 39 39 38 35 36 33 31 31 31 33 33 34 37 31 34 36 36 42 46
56 62 72 78 75 78 77 71 71 61 58 52 50 52 54 49 44 44 41 42 46 50 47 43 40 38 37 36 34 34 34 35 33 38 34 35 38 39 41 48 45 46 51
63 72 79 81 81 80 65 58 58 60 60 56 51 50 45 40 37 36 42 47 50 50 45 43 42 42 43 40 37 35 34 38 31 34 40 36 39 39 45 52 53 53 59
76 79 83 83 75 60 55 55 55 58 59 53 50 48 44 42 43 44 46 51 44 40 42 45 44 42 42 43 44 46 42 38 33 37 37 35 34 38 45 56 56 52 59
79 85 81 82 65 58 56 58 57 52 49 44 40 37 34 40 50 50 45 42 43 43 41 43 42 39 39 39 43 44 43 38 36 34 34 36 34 33 38 41 51 49 51
88 84 75 61 63 58 57 55 53 51 55 53 49 40 36 48 50 40 38 41 45 45 45 42 41 42 40 40 42 41 43 41 37 35 32 34 32 32 34 36 37 43 45
86 76 67 63 59 58 58 58 58 59 58 54 51 45 47 50 44 44 49 52 52 52 47 41 45 48 49 48 45 46 47 46 44 40 38 37 36 33 33 33 34 39 41
77 72 70 65 69 73 63 59 59 58 54 51 51 51 50 50 52 57 63 63 63 59 53 50 49 49 49 52 53 51 49 47 43 41 43 41 42 40 32 32 33 34 34
70 71 68 69 65 64 66 64 60 57 54 53 53 51 49 49 54 57 59 62 62 62 61 59 57 54 54 56 57 56 54 51 48 45 46 47 45 41 39 36 32 31 34
68 70 73 74 65 67 65 60 57 55 54 54 52 48 46 50 52 55 57 58 59 63 66 65 60 59 60 58 57 58 54 52 53 49 46 45 45 44 42 38 34 33 30
74 74 73 69 66 64 63 60 56 54 55 53 49 49 52 55 57 57 55 54 58 61 65 66 63 62 61 59 55 52 53 53 53 56 53 47 47 46 43 40 37 37 36
Wind_Direction_500mb
3 357 346 324 311 309 303 300 297 300 302 300 300 302 305 295 281 276 265 260 245 230 214 210 198 193 193 192 188 176 191 195 197 203 216 257 315 344 343 350 360 10 10
355 359 347 326 309 300 296 298 299 301 306 308 313 325 319 299 284 278 252 247 220 208 191 190 187 176 168 162 140 109 160 184 187 171 169 141 11 354 4 15 16 29 30
336 343 341 334 327 321 299 297 306 314 327 332 343 326 313 306 279 269 237 214 203 192 180 172 163 147 130 111 118 140 141 139 150 138 127 82 47 35 26 14 15 1 360
309 318 323 322 323 322 320 310 324 329 334 332 322 321 322 304 287 252 216 185 167 156 148 138 121 110 109 120 121 109 104 116 117 108 97 81 69 52 33 25 10 2 2
299 308 307 314 322 319 323 325 332 330 328 321 311 303 296 272 229 186 165 147 139 120 110 109 110 108 102 91 88 89 108 126 115 102 93 82 67 43 24 10 7 7 2
310 305 310 323 321 319 317 325 334 325 308 303 298 294 245 162 158 151 135 117 115 109 103 101 100 91 91 91 99 125 118 110 103 96 92 76 59 45 25 19 16 27 17
308 324 323 330 318 315 314 335 331 334 347 344 32 98 107 104 106 102 106 104 100 103 93 89 91 93 102 112 116 111 109 101 98 92 86 81 61 45 33 27 18 19 14
292 319 327 333 320 306 311 324 331 31 59 99 109 106 107 99 102 100 99 102 95 96 88 88 97 98 99 109 106 105 103 99 88 75 78 67 57 41 31 26 20 3 359
284 314 331 336 309 280 277 197 109 108 116 106 97 95 96 96 94 75 82 91 109 107 93 88 87 97 105 104 97 98 97 93 84 73 65 59 46 30 31 25 23 18 19
307 297 323 333 300 239 185 130 132 124 110 107 101 98 94 89 81 86 101 109 119 99 94 93 99 95 98 98 107 103 92 85 78 65 58 50 32 17 21 21 25 21 12
228 286 332 316 227 168 136 137 129 113 108 106 102 97 90 86 73 82 108 111 99 98 96 94 96 100 101 101 96 92 90 82 71 74 68 52 46 41 33 28 21 26 28
176 248 182 156 148 139 140 130 120 116 105 101 98 84 76 79 90 96 104 101 102 93 91 93 94 98 95 91 86 82 85 82 81 74 66 61 57 52 38 32 30 36 47
184 162 153 138 136 135 131 122 113 104 104 94 92 93 99 97 100 98 91 89 90 93 94 98 96 92 88 84 79 77 80 75 68 60 57 53 50 51 44 41 46 44 66
156 151 141 139 135 126 119 113 109 105 98 97 102 100 99 100 95 92 91 90 88 87 86 87 87 84 79 81 78 75 78 75 67 58 55 55 53 47 54 65 66 71 77
153 143 141 136 127 124 114 106 105 100 102 107 98 97 97 96 91 90 88 85 82 80 82 85 85 84 78 73 74 78 72 64 60 59 59 59 51 48 61 66 73 81 84
147 148 141 134 129 125 116 115 106 103 106 100 101 102 98 90 87 82 80 82 85 88 83 75 71 69 64 63 73 71 65 67 68 56 64 61 56 61 66 72 73 87 91
150 144 140 133 129 124 122 119 118 111 107 99 98 93 89 88 87 81 78 88 91 85 72 70 67 64 61 63 62 56 58 70 59 51 71 69 60 59 77 76 77 87 91
145 142 141 134 131 129 121 116 114 115 110 104 92 86 85 91 88 82 93 87 75 69 67 65 62 59 59 57 54 56 60 79 62 66 69 70 67 63 70 71 73 89 95
143 146 137 133 129 125 122 120 119 117 112 103 97 92 86 87 90 88 84 75 70 65 62 61 59 58 57 58 60 61 65 73 78 70 73 72 74 70 71 72 72 74 80
143 141 139 136 128 123 122 121 118 113 106 100 94 84 81 87 80 75 76 77 75 71 65 64 62 60 57 57 60 60 63 66 68 64 73 81 81 77 77 76 75 80 79
139 138 133 128 127 123 122 120 114 110 106 98 88 81 88 87 82 81 80 79 78 76 69 59 58 60 59 60 57 55 61 64 67 70 73 81 86 84 84 83 84 83 86
138 135 131 127 126 123 120 117 112 107 102 95 91 92 94 90 90 85 85 81 74 69 64 61 63 67 68 66 59 59 66 68 72 74 78 86 92 90 94 93 85 84 91
137 134 131 128 129 126 117 114 110 105 101 98 97 97 96 97 93 86 79 75 70 68 70 74 70 69 67 63 63 68 66 66 71 76 84 85 98 100 92 95 100 98 90
133 134 130 129 127 122 119 116 111 109 106 105 103 101 101 99 92 85 80 77 73 72 73 72 70 68 66 66 69 66 65 73 78 82 89 89 92 91 97 101 96 100 102
134 134 134 132 127 123 120 115 114 112 111 109 106 107 106 99 94 89 84 82 79 76 73 70 68 68 68 68 68 65 67 72 75 82 91 92 91 91 89 90 94 99 96
138 136 134 131 126 125 121 119 117 116 113 111 112 111 105 101 98 94 89 85 82 79 76 72 70 70 69 68 68 69 71 74 76 80 85 91 93 90 90 89 89 86 90
Wind_Speed_850mb
26 23 18 17 22 25 30 38 46 51 52 54 56 51 48 37 39 38 41 44 56 59 58 55 52 48 43 32 22 15 5 6 17 18 13 7 8 16 22 27 20 13 14
31 26 27 26 28 33 39 42 46 47 44 48 44 34 34 35 37 41 46 41 50 60 59 56 51 42 36 24 15 13 11 11 15 18 13 3 8 17 19 18 14 12 15
30 28 28 33 40 41 45 48 41 38 34 37 31 30 31 36 34 40 45 46 51 53 47 41 38 26 24 23 19 13 14 15 14 18 16 11 12 13 14 14 17 19 18
31 33 38 42 46 48 48 40 35 28 28 27 30 32 27 25 24 27 33 37 39 37 35 30 30 30 28 24 23 22 22 19 22 22 23 20 18 21 15 16 15 17 13
23 31 38 42 42 38 39 31 25 25 21 20 21 21 16 13 11 20 31 37 38 39 42 46 40 37 33 30 27 28 21 25 28 27 24 21 18 17 22 21 19 19 15
19 25 35 38 33 32 28 26 26 19 14 14 12 9 4 6 15 27 36 46 52 49 41 36 31 25 27 22 19 28 32 30 29 26 22 23 20 19 23 23 23 19 19
25 27 31 36 27 22 23 23 15 10 10 11 5 8 23 30 29 39 42 36 37 33 33 34 33 27 25 28 35 38 35 30 30 25 22 21 19 30 35 28 23 20 18
33 28 26 31 22 19 16 12 3 4 9 16 28 32 35 39 37 34 30 32 39 38 35 31 35 33 35 37 41 37 34 30 26 25 23 23 25 28 35 37 32 25 13
28 21 23 23 15 12 8 3 9 11 27 36 41 44 45 45 38 35 38 33 36 37 35 32 33 33 32 41 39 34 31 30 25 25 26 26 22 25 32 26 31 26 15
12 18 18 12 10 11 7 11 24 34 43 42 46 48 50 49 40 37 33 33 37 36 34 33 34 35 38 37 32 27 34 29 27 22 28 26 21 23 30 36 33 31 28
15 9 8 3 6 9 17 31 40 43 44 48 50 51 48 38 41 36 29 34 34 33 36 41 43 38 35 35 31 34 35 31 26 23 22 20 19 13 21 29 34 33 28
7 2 5 9 17 26 35 47 43 44 46 51 53 51 45 44 44 39 40 49 48 48 45 43 41 38 38 39 37 36 31 28 24 23 24 28 27 25 25 25 33 31 28
13 13 19 28 37 54 51 48 51 46 49 55 55 53 48 50 49 48 52 51 50 52 50 46 43 41 42 39 35 31 28 24 26 29 31 31 29 25 24 21 22 26 40
27 28 33 47 68 57 50 60 53 54 56 56 55 52 50 55 52 48 47 46 47 52 51 49 47 43 39 36 37 38 39 36 34 33 31 28 26 27 25 22 23 29 44
35 42 53 63 65 63 60 59 60 57 54 45 44 51 57 55 51 47 48 50 50 50 46 44 43 41 41 41 37 41 40 35 35 32 28 27 31 28 27 25 30 34 43
52 57 59 69 71 74 73 71 63 55 57 59 56 55 55 54 48 45 44 43 41 43 43 41 39 39 38 35 36 33 31 31 31 33 33 34 37 31 34 36 36 42 46
56 62 72 78 75 78 77 71 71 61 58 52 50 52 54 49 44 44 41 42 46 50 47 43 40 38 37 36 34 34 34 35 33 38 34 35 38 39 41 48 45 46 51
63 72 79 81 81 80 65 58 58 60 60 56 51 50 45 40 37 36 42 47 50 50 45 43 42 42 43 40 37 35 34 38 31 34 40 36 39 39 45 52 53 53 59
76 79 83 83 75 60 55 55 55 58 59 53 50 48 44 42 43 44 46 51 44 40 42 45 44 42 42 43 44 46 42 38 33 37 37 35 34 38 45 56 56 52 59
79 85 81 82 65 58 56 58 57 52 49 44 40 37 34 40 50 50 45 42 43 43 41 43 42 39 39 39 43 44 43 38 36 34 34 36 34 33 38 41 51 49 51
88 84 75 61 63 58 57 55 53 51 55 53 49 40 36 48 50 40 38 41 45 45 45 42 41 42 40 40 42 41 43 41 37 35 32 34 32 32 34 36 37 43 45
86 76 67 63 59 58 58 58 58 59 58 54 51 45 47 50 44 44 49 52 52 52 47 41 45 48 49 48 45 46 47 46 44 40 38 37 36 33 33 33 34 39 41
77 72 70 65 69 73 63 59 59 58 54 51 51 51 50 50 52 57 63 63 63 59 53 50 49 49 49 52 53 51 49 47 43 41 43 41 42 40 32 32 33 34 34
70 71 68 69 65 64 66 64 60 57 54 53 53 51 49 49 54 57 59 62 62 62 61 59 57 54 54 56 57 56 54 51 48 45 46 47 45 41 39 36 32 31 34
68 70 73 74 65 67 65 60 57 55 54 54 52 48 46 50 52 55 57 58 59 63 66 65 60 59 60 58 57 58 54 52 53 49 46 45 45 44 42 38 34 33 30
74 74 73 69 66 64 63 60 56 54 55 53 49 49 52 55 57 57 55 54 58 61 65 66 63 62 61 59 55 52 53 53 53 56 53 47 47 46 43 40 37 37 36
Wind_Direction_850mb
3 357 346 324 311 309 303 300 297 300 302 300 300 302 305 295 281 276 265 260 245 230 214 210 198 193 193 192 188 176 191 195 197 203 216 257 315 344 343 350 360 10 10
355 359 347 326 309 300 296 298 299 301 306 308 313 325 319 299 284 278 252 247 220 208 191 190 187 176 168 162 140 109 160 184 187 171 169 141 11 354 4 15 16 29 30
336 343 341 334 327 321 299 297 306 314 327 332 343 326 313 306 279 269 237 214 203 192 180 172 163 147 130 111 118 140 141 139 150 138 127 82 47 35 26 14 15 1 360
309 318 323 322 323 322 320 310 324 329 334 332 322 321 322 304 287 252 216 185 167 156 148 138 121 110 109 120 121 109 104 116 117 108 97 81 69 52 33 25 10 2 2
299 308 307 314 322 319 323 325 332 330 328 321 311 303 296 272 229 186 165 147 139 120 110 109 110 108 102 91 88 89 108 126 115 102 93 82 67 43 24 10 7 7 2
310 305 310 323 321 319 317 325 334 325 308 303 298 294 245 162 158 151 135 117 115 109 103 101 100 91 91 91 99 125 118 110 103 96 92 76 59 45 25 19 16 27 17
308 324 323 330 318 315 314 335 331 334 347 344 32 98 107 104 106 102 106 104 100 103 93 89 91 93 102 112 116 111 109 101 98 92 86 81 61 45 33 27 18 19 14
292 319 327 333 320 306 311 324 331 31 59 99 109 106 107 99 102 100 99 102 95 96 88 88 97 98 99 109 106 105 103 99 88 75 78 67 57 41 31 26 20 3 359
284 314 331 336 309 280 277 197 109 108 116 106 97 95 96 96 94 75 82 91 109 107 93 88 87 97 105 104 97 98 97 93 84 73 65 59 46 30 31 25 23 18 19
307 297 323 333 300 239 185 130 132 124 110 107 101 98 94 89 81 86 101 109 119 99 94 93 99 95 98 98 107 103 92 85 78 65 58 50 32 17 21 21 25 21 12
228 286 332 316 227 168 136 137 129 113 108 106 102 97 90 86 73 82 108 111 99 98 96 94 96 100 101 101 96 92 90 82 71 74 68 52 46 41 33 28 21 26 28
176 248 182 156 148 139 140 130 120 116 105 101 98 84 76 79 90 96 104 101 102 93 91 93 94 98 95 91 86 82 85 82 81 74 66 61 57 52 38 32 30 36 47
184 162 153 138 136 135 131 122 113 104 104 94 92 93 99 97 100 98 91 89 90 93 94 98 96 92 88 84 79 77 80 75 68 60 57 53 50 51 44 41 46 44 66
156 151 141 139 135 126 119 113 109 105 98 97 102 100 99 100 95 92 91 90 88 87 86 87 87 84 79 81 78 75 78 75 67 58 55 55 53 47 54 65 66 71 77
153 143 141 136 127 124 114 106 105 100 102 107 98 97 97 96 91 90 88 85 82 80 82 85 85 84 78 73 74 78 72 64 60 59 59 59 51 48 61 66 73 81 84
147 148 141 134 129 125 116 115 106 103 106 100 101 102 98 90 87 82 80 82 85 88 83 75 71 69 64 63 73 71 65 67 68 56 64 61 56 61 66 72 73 87 91
150 144 140 133 129 124 122 119 118 111 107 99 98 93 89 88 87 81 78 88 91 85 72 70 67 64 61 63 62 56 58 70 59 51 71 69 60 59 77 76 77 87 91
145 142 141 134 131 129 121 116 114 115 110 104 92 86 85 91 88 82 93 87 75 69 67 65 62 59 59 57 54 56 60 79 62 66 69 70 67 63 70 71 73 89 95
143 146 137 133 129 125 122 120 119 117 112 103 97 92 86 87 90 88 84 75 70 65 62 61 59 58 57 58 60 61 65 73 78 70 73 72 74 70 71 72 72 74 80
143 141 139 136 128 123 122 121 118 113 106 100 94 84 81 87 80 75 76 77 75 71 65 64 62 60 57 57 60 60 63 66 68 64 73 81 81 77 77 76 75 80 79
139 138 133 128 127 123 122 120 114 110 106 98 88 81 88 87 82 81 80 79 78 76 69 59 58 60 59 60 57 55 61 64 67 70 73 81 86 84 84 83 84 83 86
138 135 131 127 126 123 120 117 112 107 102 95 91 92 94 90 90 85 85 81 74 69 64 61 63 67 68 66 59 59 66 68 72 74 78 86 92 90 94 93 85 84 91
137 134 131 128 129 126 117 114 110 105 101 98 97 97 96 97 93 86 79 75 70 68 70 74 70 69 67 63 63 68 66 66 71 76 84 85 98 100 92 95 100 98 90
133 134 130 129 127 122 119 116 111 109 106 105 103 101 101 99 92 85 80 77 73 72 73 72 70 68 66 66 69 66 65 73 78 82 89 89 92 91 97 101 96 100 102
134 134 134 132 127 123 120 115 114 112 111 109 106 107 106 99 94 89 84 82 79 76 73 70 68 68 68 68 68 65 67 72 75 82 91 92 91 91 89 90 94 99 96
138 136 134 131 126 125 121 119 117 116 113 111 112 111 105 101 98 94 89 85 82 79 76 72 70 70 69 68 68 69 71 74 76 80 85 91 93 90 90 89 89 86 90